Binghamton, NY

3:57 AM EST on January 24, 2018 (GMT -0500)
Binghamton Regional-Link

Weather History for KBGM - November, 2012

Change the Weather History Date:

Tuesday, November 13, 2012

  Actual Average Record
Temperature  
Mean Temperature 38 °F 39 °F  
Max Temperature 44 °F 46 °F 65 °F (1964)
Min Temperature 31 °F 32 °F 14 °F (1986)
Degree Days  
Heating Degree Days 27 26  
Month to date heating degree days 350 308  
Since 1 July heating degree days 1021 1080  
Cooling Degree Days 0 0  
Month to date cooling degree days 0 0  
Year to date cooling degree days 548 381  
Moisture  
Dew Point 30 °F    
Average Humidity 82    
Maximum Humidity 100    
Minimum Humidity 63    
Precipitation  
Precipitation 0.54 in 0.10 in 0.63 in (1970)
Month to date precipitation 1.10 1.40  
Year to date precipitation 33.90 34.57  
Snow  
Snow 1.40 in 0.20 in 4.00 in (1995)
Month to date snowfall 1.6 1.6  
Since 1 July snowfall 1.6 2.6  
Since 1 September snowfall 1.6 2.6  
Snow Depth 1.00 in    
Sea Level Pressure  
Sea Level Pressure 30.31 in    
Wind  
Wind Speed 7 mph (NW)    
Max Wind Speed 17 mph    
Max Gust Speed 25 mph    
Visibility 7 miles    
Events Fog , Rain , Snow    
T = Trace of Precipitation, MM = Missing Value Source: NWS Daily Summary

Daily Weather History Graph

Daily Weather History Graph

Search for Another Location

Airport or City:

Trip Planner

Search our weather history database for the weather conditions in past years. The results will help you decide how hot, cold, wet, or windy it might be!

Date:

Astronomy

Nov. 13, 2012 Rise Set
Actual Time 6:52 AM EST 4:43 PM EST
Civil Twilight 6:22 AM EST 5:13 PM EST
Nautical Twilight 5:48 AM EST 5:47 PM EST
Astronomical Twilight 5:15 AM EST 6:20 PM EST
Moon 6:27 AM EST (11/13) 4:34 PM EST (11/13)
Length of Visible Light 10h 51m
Length of Day
9h 51m
Waning Crescent, 0% of the Moon is Illuminated
Nov 13
Waning Crescent
Nov 13
New
Nov 20
First Quarter
Nov 28
Full
Dec 6
Last Quarter

Hourly Weather History & Observations

Time (EST) Temp. Windchill Dew Point Humidity Pressure Visibility Wind Dir Wind Speed Gust Speed Precip Events Conditions
12:18 AM 42.8 °F 35.8 °F 39.2 °F 87% 30.17 in 10.0 mi WNW 13.8 mph 20.7 mph 0.02 in Rain Light Rain
12:49 AM 42.8 °F 38.6 °F 39.2 °F 87% 30.18 in 4.0 mi NW 6.9 mph - 0.03 in Rain Light Rain
12:53 AM 42.1 °F 35.7 °F 39.9 °F 92% 30.19 in 4.0 mi NW 11.5 mph 16.1 mph 0.03 in Rain Light Rain
1:15 AM 41.0 °F 34.7 °F 39.2 °F 93% 30.18 in 5.0 mi NW 10.4 mph 16.1 mph 0.02 in Rain Rain
1:20 AM 41.0 °F 35.2 °F 39.2 °F 93% 30.19 in 5.0 mi NW 9.2 mph - 0.03 in Rain Light Rain
1:53 AM 39.9 °F 36.7 °F 37.9 °F 93% 30.20 in 6.0 mi NW 4.6 mph - 0.05 in Rain Light Rain
2:13 AM 39.2 °F 37.0 °F 37.4 °F 93% 30.19 in 5.0 mi West 3.5 mph - N/A Rain Light Rain
2:24 AM 39.2 °F 35.0 °F 39.2 °F 100% 30.21 in 4.0 mi NNW 5.8 mph - 0.03 in Rain Rain
2:53 AM 39.0 °F 34.0 °F 36.0 °F 89% 30.22 in 8.0 mi NW 6.9 mph - 0.10 in Rain Light Rain
3:53 AM 35.1 °F 29.3 °F 33.1 °F 92% 30.25 in 5.0 mi WNW 6.9 mph - 0.07 in Snow Light Snow
4:07 AM 33.8 °F 27.7 °F 32.0 °F 93% 30.24 in 1.8 mi NW 6.9 mph - 0.03 in Snow Light Snow
4:19 AM 33.8 °F 28.6 °F 30.2 °F 87% 30.23 in 0.8 mi NW 5.8 mph - 0.08 in Snow Light Snow
4:34 AM 32.0 °F 27.5 °F 30.2 °F 93% 30.23 in 0.8 mi WNW 4.6 mph - 0.14 in Snow Light Snow
4:53 AM 32.0 °F 28.7 °F 30.9 °F 96% 30.25 in 0.5 mi NW 3.5 mph - 0.19 in Fog , Snow Snow
5:23 AM 32.0 °F 28.7 °F 30.2 °F 93% 30.25 in 0.8 mi SW 3.5 mph - 0.11 in Snow Light Snow
5:27 AM 32.0 °F 28.7 °F 30.2 °F 93% 30.22 in 2.5 mi ESE 3.5 mph - 0.11 in Snow Light Snow
5:34 AM 33.8 °F - 30.2 °F 87% 30.24 in 9.0 mi Calm Calm - 0.11 in Snow Light Snow
5:48 AM 32.0 °F - 30.2 °F 93% 30.22 in 10.0 mi Calm Calm - 0.11 in   Overcast
5:53 AM 32.0 °F - 30.0 °F 92% 30.25 in 10.0 mi Calm Calm - 0.11 in   Overcast
6:48 AM 32.0 °F 26.4 °F 30.2 °F 93% 30.27 in 1.8 mi SW 5.8 mph - N/A   Overcast
6:53 AM 32.0 °F 27.5 °F 30.0 °F 92% 30.30 in 0.8 mi WSW 4.6 mph - N/A   Overcast
7:05 AM 32.0 °F 25.6 °F 30.2 °F 93% 30.27 in 0.5 mi SW 6.9 mph - N/A Fog Fog
7:31 AM 30.2 °F 25.4 °F 30.2 °F 100% 30.28 in 0.2 mi WSW 4.6 mph - N/A Fog Light Freezing Fog
7:38 AM 30.2 °F 26.7 °F 30.2 °F 100% 30.28 in 0.2 mi WSW 3.5 mph - N/A Fog Light Freezing Fog
7:44 AM 30.2 °F 26.7 °F 30.2 °F 100% 30.29 in 1.0 mi WSW 3.5 mph - N/A   Overcast
7:50 AM 30.2 °F 26.7 °F 30.2 °F 100% 30.29 in 3.0 mi SW 3.5 mph - N/A   Mostly Cloudy
7:53 AM 30.9 °F 27.5 °F 30.0 °F 96% 30.31 in 6.0 mi WSW 3.5 mph - N/A   Mostly Cloudy
8:53 AM 33.1 °F 26.1 °F 30.0 °F 89% 30.32 in 10.0 mi West 8.1 mph - N/A   Clear
9:22 AM 33.8 °F 27.7 °F 30.2 °F 87% 30.30 in 10.0 mi WNW 6.9 mph - N/A   Mostly Cloudy
9:38 AM 33.8 °F 29.6 °F 30.2 °F 87% 30.31 in 10.0 mi WNW 4.6 mph - N/A   Overcast
9:53 AM 33.1 °F 26.9 °F 30.0 °F 89% 30.34 in 10.0 mi WNW 6.9 mph - N/A   Overcast
10:22 AM 33.8 °F 30.8 °F 30.2 °F 87% 30.32 in 10.0 mi NW 3.5 mph - N/A   Overcast
10:35 AM 33.8 °F 28.6 °F 30.2 °F 87% 30.33 in 10.0 mi NNW 5.8 mph - N/A   Overcast
10:53 AM 33.1 °F 25.5 °F 28.9 °F 85% 30.36 in 10.0 mi NNW 9.2 mph - N/A   Overcast
11:41 AM 33.8 °F 26.4 °F 26.6 °F 75% 30.32 in 10.0 mi NNW 9.2 mph - N/A   Overcast
11:53 AM 33.1 °F 26.9 °F 28.0 °F 82% 30.36 in 10.0 mi NNW 6.9 mph - N/A   Overcast
12:33 PM 33.8 °F 27.7 °F 28.4 °F 81% 30.32 in 10.0 mi NNW 6.9 mph - N/A   Overcast
12:53 PM 34.0 °F 27.2 °F 27.0 °F 75% 30.36 in 10.0 mi NNW 8.1 mph - N/A   Overcast
1:53 PM 34.0 °F 26.0 °F 26.1 °F 73% 30.36 in 10.0 mi NW 10.4 mph - N/A   Overcast
2:53 PM 34.0 °F 26.6 °F 25.0 °F 70% 30.37 in 10.0 mi NW 9.2 mph - N/A   Overcast
3:53 PM 34.0 °F 29.8 °F 26.1 °F 73% 30.40 in 10.0 mi NW 4.6 mph - N/A   Overcast
4:53 PM 33.1 °F 28.7 °F 27.0 °F 78% 30.41 in 10.0 mi NW 4.6 mph - N/A   Overcast
5:53 PM 33.1 °F 25.5 °F 25.0 °F 72% 30.44 in 10.0 mi NNW 9.2 mph - N/A   Overcast
6:53 PM 32.0 °F 27.5 °F 26.1 °F 79% 30.46 in 10.0 mi NNW 4.6 mph - N/A   Overcast
7:53 PM 32.0 °F 24.8 °F 24.1 °F 73% 30.47 in 10.0 mi NNW 8.1 mph - N/A   Overcast
8:38 PM 32.0 °F 25.6 °F 24.8 °F 75% 30.43 in 10.0 mi NNW 6.9 mph - N/A   Overcast
8:53 PM 32.0 °F 24.2 °F 21.0 °F 64% 30.49 in 10.0 mi North 9.2 mph - N/A   Overcast
9:53 PM 32.0 °F 26.4 °F 21.0 °F 64% 30.49 in 10.0 mi NNW 5.8 mph - N/A   Overcast
10:53 PM 32.0 °F 27.5 °F 21.0 °F 64% 30.50 in 10.0 mi NNW 4.6 mph - N/A   Overcast
11:53 PM 30.9 °F 25.2 °F 21.0 °F 67% 30.50 in 10.0 mi NW 5.8 mph - N/A   Overcast